Вернуться в каталог

COSMOS 1953

АктивенВоенныеPO
NORAD 19210·PAYLOAD·🇷🇺 Russia

Запущен Jun 14, 1988 с Plesetsk Cosmodrome

Loading…

Ближайшие Пролёты (ближайшие 24 часа)

TLE

СвежийSource: Space-Track

Эпоха: Sep 14, 2026, 21:57 UTC

1 19210U 88050A   26257.91465681  .00006516  00000-0  21565-3 0  9996
2 19210  82.5090 327.4810 0011012 166.9253 193.2276 15.31071518 66713

Отслеживайте COSMOS 1953 в реальном времени с AllMySat

Download on the App Store